AO-07 1 07530U 74089B 23306.57128003 -.00000036 00000-0 63718-4 0 9992 2 07530 101.9629 294.2519 0012210 157.7963 315.9519 12.53668700240750 UO-11 1 14781U 84021B 23306.51021520 .00002273 00000-0 26896-3 0 9994 2 14781 97.6765 278.2593 0009812 103.8272 256.4035 14.85519472114672 AO-16 1 20439U 90005D 23306.55711852 .00000298 00000-0 12534-3 0 9997 2 20439 98.8947 300.4188 0011183 153.4122 321.9788 14.33200097764724 LO-19 1 20442U 90005G 23306.46157757 .00000294 00000-0 12343-3 0 9993 2 20442 98.8618 286.0512 0012525 129.7971 230.4317 14.33355206765155 AO-27 1 22825U 93061C 23306.57546621 .00000186 00000-0 89358-4 0 9990 2 22825 98.8243 351.5882 0008889 30.7532 329.4169 14.30371207570071 IO-26 1 22826U 93061D 23306.61359659 .00000210 00000-0 97714-4 0 9992 2 22826 98.8189 351.4882 0009159 16.5180 343.6299 14.30739598570356 FO-29 1 24278U 96046B 23306.60800309 .00000020 00000-0 54469-4 0 9992 2 24278 98.5503 266.4132 0351049 58.0159 305.4597 13.53159172343650 NOAA-15 1 25338U 98030A 23306.83851095 .00000237 00000-0 11633-3 0 9993 2 25338 98.5944 333.4584 0009258 268.6609 91.3511 14.26423654325022 GO-32 1 25397U 98043D 23306.50984879 .00000188 00000-0 10176-3 0 9999 2 25397 98.8887 265.2773 0002375 92.2941 267.8509 14.23934777315016 ISS 1 25544U 98067A 23306.90913017 .00023104 00000-0 41115-3 0 9999 2 25544 51.6455 1.4172 0000922 53.8000 121.3884 15.50033057423300 NO-44 1 26931U 01043C 23306.10046143 .00000289 00000-0 14092-3 0 9990 2 26931 67.0509 200.6952 0006410 256.5865 103.4522 14.31028595153310 SO-50 1 27607U 02058C 23306.10406160 .00001676 00000-0 24680-3 0 9992 2 27607 64.5550 201.9578 0053491 194.3907 165.5676 14.77844306122607 CO-55 1 27844U 03031E 23306.57083957 .00000536 00000-0 25739-3 0 9993 2 27844 98.6801 311.8297 0010906 85.5162 274.7262 14.22940360 55419 CO-57 1 27848U 03031J 23306.56016449 .00000451 00000-0 22185-3 0 9996 2 27848 98.6836 312.1786 0010794 99.3565 260.8834 14.22428916 55175 RS-22 1 27939U 03042A 23306.86141193 .00001820 00000-0 31947-3 0 9994 2 27939 98.2628 95.0729 0013312 61.4706 96.6935 14.68911101 74891 NOAA-18 1 28654U 05018A 23306.78511247 .00000319 00000-0 19482-3 0 9998 2 28654 98.8984 20.4318 0013928 351.6958 8.3982 14.13044188951145 CO-58 1 28895U 05043F 23306.63113830 .00002513 00000-0 46348-3 0 9992 2 28895 98.1732 77.8407 0015989 359.9303 0.1895 14.66314740961095 CO-65 1 32785U 08021C 23306.47092557 .00005757 00000-0 54891-3 0 9993 2 32785 97.7259 269.7098 0012342 14.1353 346.0210 14.93677574841457 AAUSAT2 1 32788U 08021F 23306.46397006 .00016855 00000-0 11081-2 0 9996 2 32788 97.5765 283.2309 0004564 226.2598 133.8252 15.07649930843912 DO-64 1 32789U 08021G 23306.81549700 .00771368 00000-0 34847-2 0 9998 2 32789 97.2763 330.0374 0001919 139.4422 220.6990 15.82029508848963 CO-66 1 32791U 08021J 23306.44141524 .00009637 00000-0 80122-3 0 9993 2 32791 97.6728 275.0834 0010279 312.7702 47.2655 14.98881414842352 RS-30 1 32953U 08025A 23306.79352115 .00000042 00000-0 23347-3 0 9992 2 32953 82.5048 230.8751 0018234 242.1834 117.7398 12.43131412700879 PRISM 1 33493U 09002B 23306.59298546 .00014280 00000-0 87824-3 0 9992 2 33493 98.2373 331.1214 0013288 305.6077 54.3911 15.10091752804603 NOAA-19 1 33591U 09005A 23306.77642010 .00000278 00000-0 17408-3 0 9996 2 33591 99.0827 354.8116 0013446 209.5273 150.5140 14.12855328759514 SRMSAT 1 37841U 11058D 23306.55561678 .00000543 00000-0 15302-3 0 9991 2 37841 19.9714 93.3873 0011873 112.1324 327.6169 14.10973923622376 HRBE 1 37855U 11061F 23306.71337406 .00039617 00000-0 96324-3 0 9995 2 37855 101.7025 347.6638 0098930 333.2435 26.3708 15.35883707658221 RS-40 1 38735U 12041C 23306.56068501 .00000018 00000-0 61739-4 0 9998 2 38735 82.4729 311.8129 0017291 359.2727 0.8324 12.42597479510902 ZACUBE-1 1 39417U 13066B 23306.44672572 .00004986 00000-0 55780-3 0 9996 2 39417 97.7046 263.4994 0052984 190.4121 169.6002 14.86323056537728 Delfi-N3xt 1 39428U 13066N 23306.51240480 .00006281 00000-0 86924-3 0 9999 2 39428 97.8335 226.5727 0109315 103.9627 257.3767 14.74274618532507 GOMX-1 1 39430U 13066Q 23306.76451464 .00003227 00000-0 55782-3 0 9990 2 39430 97.7579 189.7435 0142077 254.6194 103.9273 14.62624935529782 LO-74 1 39440U 13066AA 23306.43318480 .00005827 00000-0 73129-3 0 9998 2 39440 97.7874 250.8596 0071926 298.1368 61.2589 14.80706461534607 AO-73 1 39444U 13066AE 23306.44007162 .00006641 00000-0 70549-3 0 9993 2 39444 97.6907 266.1877 0051496 173.9552 186.2298 14.88349760536198 SPROUT 1 39770U 14029E 23306.85769242 .00041570 00000-0 25151-2 0 9992 2 39770 98.0008 79.0731 0006119 220.2396 139.8380 15.10483932513020 DTUSAT-2 1 40030U 14033W 23306.80702290 .00007196 00000-0 66728-3 0 9995 2 40030 97.9817 249.3364 0009979 179.9566 180.1657 14.94726827509202 EO-80 1 40032U 14033Y 23306.84868857 .00007034 00000-0 65207-3 0 9995 2 40032 97.9799 249.3942 0010056 182.3030 177.8145 14.94743983509192 HODOYOSHI-1 1 40299U 14070B 23306.78868647 .00018115 00000-0 48992-3 0 9995 2 40299 97.1761 6.0582 0010686 134.8648 225.3467 15.37705910500072 GRIFEX 1 40379U 15003D 23306.72967029 .00090322 00000-0 11212-2 0 9993 2 40379 99.0863 278.6441 0059640 144.8459 215.6749 15.57528876484814 XW-2C 1 40906U 15049H 23306.82530799 .00018662 00000-0 62753-3 0 9994 2 40906 97.4934 314.8152 0012068 42.8351 317.3828 15.30792640449579 XW-2D 1 40907U 15049J 23306.82455649 .00023867 00000-0 73051-3 0 9991 2 40907 97.4905 315.8096 0010693 37.0253 323.1725 15.33772447449695 LILACSAT-2 1 40908U 15049K 23306.80571600 .00008171 00000-0 36210-3 0 9993 2 40908 97.5289 309.6852 0015368 69.9383 290.3506 15.21778425448864 XW-2E 1 40909U 15049L 23306.78056165 .00071293 00000-0 12167-2 0 9994 2 40909 97.4434 323.9662 0005666 6.1718 353.9603 15.51071687450528 XW-2F 1 40910U 15049M 23306.77950877 .00065862 00000-0 11606-2 0 9990 2 40910 97.4531 323.2254 0006401 8.3831 351.7526 15.50181971450253 XW-2B 1 40911U 15049N 23306.77889662 .00024149 00000-0 74649-3 0 9994 2 40911 97.4882 316.1045 0010773 38.4269 321.7738 15.33455038449561 DCBB 1 40912U 15049P 23306.83018728 .00118424 00000-0 13062-2 0 9990 2 40912 97.4009 328.7877 0002612 289.9408 70.1568 15.62700087451104 IO-86 1 40931U 15052B 23306.62165301 .00001481 00000-0 11465-3 0 9992 2 40931 5.9985 178.1880 0012453 96.9062 263.2482 14.77447355437856 ChubuSat-2 1 41338U 16012B 23306.59564238 .00006057 00000-0 40624-3 0 9992 2 41338 31.0033 52.1116 0012227 117.9135 242.2741 15.05338462423242 ChubuSat-3 1 41339U 16012C 23306.67499270 .00005496 00000-0 37076-3 0 9998 2 41339 31.0099 49.0491 0012143 125.5101 234.6670 15.05071852423244 Horyu-4 1 41340U 16012D 23306.56928818 .00012036 00000-0 70725-3 0 9999 2 41340 31.0049 11.7361 0011445 188.7295 171.3145 15.10418764423643 e-st@r-II 1 41459U 16025D 23306.82109387 .00063877 00000-0 13374-2 0 9990 2 41459 98.1640 163.1382 0084167 334.3106 25.3968 15.41429888414162 Lapan A3 1 41603U 16040E 23306.83465523 .00003225 00000-0 13835-3 0 9990 2 41603 97.1579 326.0055 0012371 178.1921 181.9364 15.23346075408592 Pratham 1 41783U 16059A 23306.55335204 .00001102 00000-0 21614-3 0 9996 2 41783 97.8576 331.4583 0033383 24.7192 335.5602 14.64254831379224 TY-1 1 41844U 16066D 23306.82864174 .01150978 75137-3 16837-2 0 9998 2 41844 97.3408 332.8558 0004826 202.5716 157.5354 16.05297650389406 CAS-2T 1 41847U 16066G 23306.44944648 .00002775 00000-0 41519-3 0 9994 2 41847 98.4898 14.2901 0358449 142.2782 220.4129 14.40261352366708 CAS-4B 1 42759U 17034B 23306.82454504 .00014436 00000-0 65615-3 0 9992 2 42759 43.0155 63.4002 0012452 283.5169 76.4293 15.20524199352717 CAS-4A 1 42761U 17034D 23306.77376584 .00013835 00000-0 62865-3 0 9996 2 42761 43.0140 62.1884 0012947 284.4414 75.4999 15.20557987352713 NIUSat 1 42766U 17036B 23306.83790162 .00052217 00000-0 92608-3 0 9997 2 42766 97.1405 335.7940 0005764 329.3540 30.7375 15.50062345354000 Aalto 1 1 42775U 17036L 23306.61089807 .00033154 00000-0 76699-3 0 9991 2 42775 97.1384 333.1378 0007137 338.4079 21.6867 15.42382966353804 URSA MAIOR 1 42776U 17036M 23306.57985487 .00040997 00000-0 84758-3 0 9994 2 42776 97.1385 334.9672 0006227 332.5593 27.5327 15.45683388353909 Max Valier Sat 1 42778U 17036P 23306.59374692 .00039925 00000-0 77870-3 0 9994 2 42778 97.1365 338.7711 0004983 332.0970 28.0013 15.47396113354061 Pegasus 1 42784U 17036V 23306.56364399 .00141564 00000-0 12819-2 0 9995 2 42784 97.1261 343.7229 0002007 294.4768 65.6284 15.67615584354485 SKCUBE 1 42789U 17036AA 23306.67500747 .00707881 21758-3 17432-2 0 9993 2 42789 97.1129 347.9588 0003552 241.9851 118.1067 15.96049631354774 VENTA 1 1 42791U 17036AC 23306.61303710 .00144631 00000-0 12770-2 0 9993 2 42791 97.1252 345.0462 0001557 291.1218 68.9878 15.68230696354551 D-SAT 1 42794U 17036AF 23306.48974941 .00004129 00000-0 31780-3 0 9991 2 42794 97.4767 292.3333 0112930 195.4899 164.2858 14.97237570346613 TechnoSat 1 42829U 17042E 23306.49307049 .00003925 00000-0 36730-3 0 9990 2 42829 97.3823 135.7166 0014505 117.1691 243.1011 14.94540004343147 AO-91 1 43017U 17073E 23306.65650577 .00013170 00000-0 88516-3 0 9991 2 43017 97.6056 185.5582 0225137 331.6359 27.2749 14.88462802321767 AO-92 1 43137U 18004AC 23306.76486357 .00110049 00000-0 12005-2 0 9996 2 43137 97.3122 28.6993 0003340 332.1428 27.9651 15.63011039323809 TianYi 2 1 43155U 18008A 23306.83297570 .00034623 00000-0 10944-2 0 9998 2 43155 97.2787 356.4829 0011466 170.0047 190.1426 15.32658752319835 Zhou Enlai 1 43156U 18008B 23306.82470515 .00039436 00000-0 11901-2 0 9991 2 43156 97.2835 356.8694 0009113 169.8869 190.2559 15.34129182319771 TianYi 6 1 43158U 18008D 23306.66976157 .00026728 00000-0 95371-3 0 9992 2 43158 97.2872 352.8582 0009639 174.6304 185.5041 15.28807376319535 S-Net D 1 43186U 18014G 23306.30960742 .00005122 00000-0 39744-3 0 9991 2 43186 97.6050 207.4221 0014749 70.0416 290.2396 15.01712718314273 S-Net B 1 43187U 18014H 23306.31111459 .00005196 00000-0 40305-3 0 9992 2 43187 97.6063 207.3538 0015325 66.9410 293.3429 15.01713065314274 S-Net A 1 43188U 18014J 23306.24434923 .00005164 00000-0 40061-3 0 9993 2 43188 97.6066 207.3851 0015265 67.4635 292.8204 15.01715637314265 S-Net C 1 43189U 18014K 23306.24710738 .00005356 00000-0 41513-3 0 9991 2 43189 97.6092 207.2847 0016400 61.5045 298.7828 15.01718552312816 CubeBel-1 1 43666U 18083E 23306.86070659 .00078704 00000-0 12981-2 0 9999 2 43666 97.3635 340.3051 0005618 349.9564 10.1575 15.52002685278590 Changshagaoxin 1 43669U 18083H 23306.80712296 .00052169 00000-0 11107-2 0 9992 2 43669 97.3655 333.8775 0005167 6.7063 353.4254 15.44770579278262 Ten-Koh 1 43677U 18084G 23306.83873934 .00003206 00000-0 30574-3 0 9990 2 43677 98.0340 89.5276 0015769 52.8582 307.4075 14.93998920272751 PO-101 1 43678U 18084H 23306.85640949 .00001757 00000-0 17025-3 0 9996 2 43678 98.0434 93.8496 0010537 66.0074 294.2247 14.94040773272961 QO-100 1 43700U 18090A 23306.24436117 .00000145 00000-0 00000-0 0 9994 2 43700 0.0131 264.8264 0001714 348.7376 261.4889 1.00273423 18070 MinXSS-2 1 43758U 18099A 23306.70481764 .00009136 00000-0 66509-3 0 9993 2 43758 97.5882 8.0826 0019046 19.5652 340.6301 15.03860154268545 AO-95 1 43770U 18099N 23306.44959206 .00008349 00000-0 64371-3 0 9999 2 43770 97.5787 4.4384 0015136 52.2079 308.0514 15.01762666268344 RANGE-B 1 43772U 18099Q 23306.73998239 .00010684 00000-0 77612-3 0 9999 2 43772 97.5557 7.7848 0005429 337.1747 22.9237 15.04028360268470 RANGE-A 1 43773U 18099R 23306.44334427 .00005933 00000-0 48400-3 0 9995 2 43773 97.5473 1.8816 0013358 26.8115 333.3796 14.99739291268271 MOVE-II 1 43780U 18099Y 23306.63737259 .00015620 00000-0 10371-2 0 9993 2 43780 97.5552 7.9181 0009000 48.8077 311.3926 15.07276571268569 SNUSat 2 1 43782U 18099AA 23306.43519632 .00006854 00000-0 53492-3 0 9997 2 43782 97.5526 4.7199 0016478 350.8710 9.2212 15.01348518268367 SnugLite 1 43784U 18099AC 23306.12843082 .00007442 00000-0 57164-3 0 9998 2 43784 97.5258 3.9936 0006076 13.3752 346.7633 15.02014916268360 ITASat 1 1 43786U 18099AE 23306.43118385 .00006171 00000-0 48598-3 0 9994 2 43786 97.5516 5.2376 0020145 35.9442 324.3132 15.00992125268373 EAGLET 1 1 43790U 18099AJ 23306.72377114 .00005481 00000-0 44062-3 0 9993 2 43790 97.5618 5.8946 0016605 28.9830 331.2313 15.00300088268143 ESEO 1 43792U 18099AL 23306.70319114 .00002646 00000-0 22682-3 0 9993 2 43792 97.5513 3.8966 0012746 26.1623 334.0241 14.98295487268122 CSIM 1 43793U 18099AM 23306.43275004 .00014706 00000-0 96861-3 0 9993 2 43793 97.5613 9.2152 0015013 21.9791 338.2077 15.07527957268382 JO-97 1 43803U 18099AX 23306.44175654 .00008660 00000-0 64942-3 0 9993 2 43803 97.5560 5.5601 0010692 5.9960 354.1391 15.02851404268446 Suomi 100 1 43804U 18099AY 23306.13950160 .00006564 00000-0 49828-3 0 9990 2 43804 97.5595 5.0583 0017692 3.2476 356.8860 15.02405154268390 CHOMPTT 1 43855U 18104G 23306.63242621 .00060167 00000-0 10534-2 0 9994 2 43855 85.0247 71.3245 0009161 154.8823 205.2882 15.50332052271949 ISAT 1 43879U 18111D 23306.46464914 .00011255 00000-0 79871-3 0 9994 2 43879 97.6319 209.0855 0016561 58.7633 301.5213 15.04796689265113 UWE-4 1 43880U 18111E 23306.22024468 .00010993 00000-0 78794-3 0 9997 2 43880 97.6215 209.3406 0019727 66.1212 294.2079 15.04382224265101 Sparrow 1 43881U 18111F 23306.30407760 .00011143 00000-0 78354-3 0 9997 2 43881 97.6360 210.4534 0012806 95.4276 264.8412 15.05187909265146 Lume 1 1 43908U 18111AJ 23306.58532934 .00100845 00000-0 11416-2 0 9992 2 43908 97.1092 188.8201 0012041 61.6058 298.6412 15.62005667270869 FO-99 1 43937U 19003F 23306.59423326 .00923691 41887-3 17511-2 0 9995 2 43937 97.0516 334.6932 0005778 136.9244 223.2488 16.00794215267719 AstroCast 0.2 1 44083U 19018F 23306.74218582 .00463440 85066-4 14067-2 0 9999 2 44083 97.2389 10.2606 0003925 224.8765 135.2192 15.92049065256060 AISTechSat 3 1 44103U 19018AB 23306.82433439 .00058371 00000-0 95829-3 0 9991 2 44103 97.2315 5.0855 0007455 124.7298 235.4658 15.52201919255929 AISat 1 1 44104U 19018AC 23306.52332282 .00044471 00000-0 64205-3 0 9993 2 44104 97.3716 41.0869 0033629 111.2307 249.2545 15.55163365257155 Prox-1 1 44339U 19036A 23306.19251766 .00011305 00000-0 21793-2 0 9997 2 44339 24.0005 245.8109 0009151 348.2331 11.7947 14.61685341231795 Move-IIb 1 44398U 19038N 23306.78043844 .00324021 00000-0 24161-2 0 9999 2 44398 97.6664 298.6095 0013854 126.1921 234.0625 15.71689361240151 SONATE 1 44400U 19038Q 23306.47790728 .00015521 00000-0 62232-3 0 9993 2 44400 97.6999 287.4176 0018828 181.3338 178.7852 15.24941760239283 BeeSat 9 1 44412U 19038AC 23306.44094910 .00051496 00000-0 13031-2 0 9996 2 44412 97.6856 292.5579 0013755 155.9003 204.2888 15.39497354239355 JAISAT-1 1 44419U 19038F 23306.69352445 .00047214 00000-0 11899-2 0 9993 2 44419 97.6840 293.9466 0013588 151.3605 208.8389 15.39645090239771 Taurus 1 1 44530U 19059C 23306.84141985 .00006667 00000-0 16706-2 0 9991 2 44530 98.5628 56.9753 0012243 32.2443 327.9498 14.51670885218740 Duchifat 3 1 44854U 19089C 23306.50223600 .00012879 00000-0 79734-3 0 9994 2 44854 36.9617 343.0124 0006168 14.8708 345.2218 15.09207192213787 OPS-SAT 1 44878U 19092F 23306.48605997 .00036037 00000-0 81064-3 0 9995 2 44878 97.4658 137.7780 0007479 5.4461 354.6867 15.43205159215059 TO-108 1 44881U 19093C 23306.84387282 .00001460 00000-0 18619-3 0 9992 2 44881 97.8514 22.8905 0014332 351.3345 8.7619 14.82931630209340 FloripaSat 1 1 44885U 19093G 23306.81991918 .00005436 00000-0 60929-3 0 9998 2 44885 97.8594 26.4993 0012935 349.9554 10.1402 14.87185513209546 RS-44 1 44909U 19096E 23306.60372642 .00000016 00000-0 24343-4 0 9992 2 44909 82.5200 255.9560 0216509 223.1491 135.2468 12.79723571179866 BY70-2 1 45857U 20042B 23306.82197893 .00034791 00000-0 29428-2 0 9999 2 45857 97.9152 27.7868 0008801 263.7570 96.2649 14.97918177180233 UPMSat 2 1 46276U 20061E 23306.42410655 .00014019 00000-0 53919-3 0 9990 2 46276 97.3300 11.2611 0001500 143.4106 216.7235 15.26507214175356 AmicalSat 1 46287U 20061R 23306.79733575 .00020525 00000-0 83412-3 0 9991 2 46287 97.3834 10.9617 0001367 2.3548 357.7696 15.24584022174790 SALSAT 1 46495U 20068K 23306.82556733 .00007876 00000-0 49523-3 0 9991 2 46495 97.7862 256.5467 0015513 16.0758 344.0959 15.09414565169972 CAPE 3 1 47309U 21002A 23306.53785670 .00105571 00000-0 14420-2 0 9995 2 47309 60.6707 241.4048 0022202 27.3176 332.9089 15.56541912155697 AO-109 1 47311U 21002C 23306.55684317 .00065970 00000-0 11599-2 0 9998 2 47311 60.6769 243.0238 0020988 26.8593 333.3588 15.49800518155650 ExoCube 2 1 47319U 21002L 23306.83711452 .00061031 00000-0 11214-2 0 9996 2 47319 60.6742 244.8409 0021862 25.9275 334.2914 15.48556770155602 UVSQ-SAT 1 47438U 21006AB 23306.38309739 .00026610 00000-0 91624-3 0 9991 2 47438 97.3654 1.8458 0007559 318.9793 41.0879 15.29990724153730 YUSAT 1 1 47439U 21006AC 23306.69757208 .00037611 00000-0 11214-2 0 9993 2 47439 97.3658 3.6170 0006661 311.1000 48.9667 15.34542484153873 SOMP 2b 1 47445U 21006AJ 23306.38298169 .00024072 00000-0 85583-3 0 9990 2 47445 97.3618 0.8586 0007623 325.8487 34.2262 15.28965580153694 IDEASSat 1 47458U 21006AX 23306.69671588 .00021724 00000-0 79741-3 0 9998 2 47458 97.3720 1.9647 0006983 325.4420 34.6365 15.27942046153715 CubeSX-Sirius-HSE 1 47951U 21022V 23306.85443235 .00015715 00000-0 79804-3 0 9991 2 47951 97.4791 202.1033 0015853 208.3805 151.6566 15.16871258144029 CubeSX-HSE 1 47952U 21022W 23306.82135295 .00014499 00000-0 73520-3 0 9990 2 47952 97.4788 202.1312 0015769 207.7125 152.3269 15.16943155144024 KSU-Cubesat 1 47954U 21022Y 23306.71195197 .00017997 00000-0 87812-3 0 9992 2 47954 97.4800 202.6291 0014960 205.1128 154.9380 15.18252850143768 GRBAlpha 1 47959U 21022AD 23306.86616753 .00015943 00000-0 80591-3 0 9995 2 47959 97.4792 202.2824 0015628 208.0863 151.9529 15.17033142142852 Orbicraft-Zorkiy 1 47960U 21022AE 23306.88011614 .00016253 00000-0 79804-3 0 9994 2 47960 97.4827 202.9549 0015224 205.8187 154.2288 15.18052223143570 STECCO 1 47962U 21022AG 23306.80774355 .00036708 00000-0 13581-2 0 9992 2 47962 97.4800 206.7516 0009953 177.2726 182.8569 15.27547121143140 MO-110 1 47964U 21022AJ 23306.30912888 .00039567 00000-0 14089-2 0 9994 2 47964 97.4817 207.0843 0011749 175.0873 185.0484 15.28770377143112 FEES 1 48082U 21022AL 23306.25039123 .00112038 00000-0 24204-2 0 9997 2 48082 97.4781 210.2615 0009084 137.8205 222.3743 15.44056682143028 TUBIN 1 48900U 21059X 23306.85672970 .00014159 00000-0 61182-3 0 9997 2 48900 97.6190 81.7804 0008743 154.9024 205.2639 15.22561796130252 IT-SPINS 1 49017U 21013G 23306.86521493 .00082312 00000-0 11112-2 0 9994 2 49017 51.5861 112.7271 0004017 172.1438 187.9616 15.57051314131193 LEDSAT 1 49069U 21073D 23306.77638454 .00012721 00000-0 63804-3 0 9996 2 49069 97.4677 15.4599 0022372 3.3123 356.8254 15.17246086121895 CUTE 1 49263U 21088D 23306.45162464 .00015030 00000-0 87856-3 0 9995 2 49263 97.5288 10.0234 0017662 145.1576 215.0814 15.11846020115158 TeikyoSat 4 1 49396U 21102B 23306.58318293 .00001940 00000-0 14863-3 0 9999 2 49396 97.4952 354.2192 0013020 339.7285 20.3422 15.02931734108555 Z-Sat 1 49399U 21102E 23306.87749160 .00004638 00000-0 32101-3 0 9997 2 49399 97.4673 355.6844 0020292 319.7545 40.2179 15.05991255108752 KOSEN 1 1 49402U 21102H 23306.70795511 .00005884 00000-0 38353-3 0 9994 2 49402 97.4589 356.3026 0018968 306.3796 53.5682 15.08129102108821 HO-113 1 50466U 21131B 23306.81563824 .00000794 00000-0 27089-3 0 9999 2 50466 98.5445 27.8936 0005311 88.8455 271.3340 14.39154887 97298 Tevel-3 1 50988U 22002E 23306.78821758 .00037699 00000-0 11902-2 0 9995 2 50988 97.4163 13.3334 0007186 104.3453 255.8587 15.32718723 99930 Tevel-8 1 50989U 22002F 23306.81355947 .00036404 00000-0 11526-2 0 9997 2 50989 97.4178 13.4328 0007160 103.8731 256.3308 15.32635104 99934 Tevel-5 1 50998U 22002Q 23306.84048876 .00039105 00000-0 11875-2 0 9998 2 50998 97.4156 13.9649 0008089 98.4938 261.7221 15.33942799 99981 Tevel-6 1 50999U 22002R 23306.83935667 .00038911 00000-0 11821-2 0 9996 2 50999 97.4155 13.9546 0008056 98.3213 261.8943 15.33930620 99988 Tevel-1 1 51013U 22002AF 23306.80296384 .00037902 00000-0 11991-2 0 9994 2 51013 97.4153 13.2651 0007105 104.2761 255.9270 15.32651231 99932 NO-116 1 51031U 22002AZ 23306.45128372 .00117191 00000-0 20677-2 0 9996 2 51031 97.4259 18.4729 0004678 91.2166 268.9621 15.49954205100176 IRIS-A 1 51044U 22002BN 23306.43662763 .00015685 00000-0 67197-3 0 9999 2 51044 97.4181 9.9506 0008787 113.6225 246.5935 15.22825259 99671 Tevel-7 1 51062U 22002CG 23306.81219965 .00036488 00000-0 11539-2 0 9995 2 51062 97.4174 13.4016 0007093 103.3897 256.8136 15.32672518 99934 Tevel-4 1 51063U 22002CH 23306.82456108 .00036757 00000-0 11657-2 0 9999 2 51063 97.4171 13.3793 0007173 103.2269 256.9773 15.32580261 99935 Tevel-2 1 51069U 22002CP 23306.78936884 .00037341 00000-0 11785-2 0 9996 2 51069 97.4160 13.3023 0007131 104.3464 255.8570 15.32732088 99937 DELFI-PQ 1 51074U 22002CU 23306.49431157 .00167442 00000-0 22186-2 0 9996 2 51074 97.4388 22.1723 0004394 121.7253 238.4431 15.57698096100345 SO-115 1 51080U 22002DA 23306.72920964 .00049754 00000-0 13170-2 0 9996 2 51080 97.4448 18.4771 0009062 127.0058 233.2018 15.38176650100114 SO-114 1 51081U 22002DB 23302.92202204 .00059772 00000-0 15799-2 0 9995 2 51081 97.4450 14.6236 0009101 139.4397 220.7528 15.38172317 99535 OreSat0 1 52017U 22026K 23306.77565088 .00030784 00000-0 10118-2 0 9992 2 52017 97.5103 310.1678 0017159 322.2839 37.7198 15.31352283 90704 Planetum 1 1 52738U 22057G 23306.29943824 .00026045 00000-0 10279-2 0 9994 2 52738 97.5501 62.7594 0006129 225.0411 135.0330 15.25504331 79673 Foresail-1 1 52766U 22057AL 23306.28718027 .00017709 00000-0 75496-3 0 9999 2 52766 97.5637 63.5391 0010959 205.9461 154.1227 15.22950275 79672 SNUGLITE 2 1 52899U 22065F 23306.63522666 .00001980 00000-0 42386-3 0 9992 2 52899 98.0894 87.8310 0008616 138.5249 221.6607 14.59787417 71053 CTIM 1 52950U 22074G 23306.42142549 .00331225 00000-0 22763-2 0 9999 2 52950 44.9985 295.0097 0013675 92.2699 267.9768 15.72847729 75091 IO-117 1 53106U 22080B 23304.23962698 -.00000003 00000-0 00000-0 0 9998 2 53106 70.1402 272.4281 0008307 159.3923 200.7073 6.42557230 30496 SelfieSat 1 53951U 22057BC 23306.83995269 .00032450 00000-0 11539-2 0 9999 2 53951 97.5544 64.5264 0007804 216.7706 143.2999 15.28897769 79818 FO-118 1 54684U 22167C 23306.83137726 .00018043 00000-0 87912-3 0 9992 2 54684 97.5807 83.9959 0012204 215.1260 144.9170 15.18336980 49681 SSS-2B 1 56184U 23054G 23306.78402868 .00023173 00000-0 86503-3 0 9996 2 56184 97.3907 200.0877 0007087 269.9335 90.1092 15.27372203 31292 CIRBE 1 56188U 23054L 23306.61254028 .00034847 00000-0 12246-2 0 9997 2 56188 97.3863 200.0376 0005674 258.6613 101.3990 15.29280159 31286 INSPIRE-Sat 7 1 56211U 23054AK 23306.51276794 .00033063 00000-0 10906-2 0 9997 2 56211 97.3880 200.5360 0009649 237.4652 122.5658 15.31319183 31306 RoseyCubesat 1 1 56212U 23054AL 23306.79415277 .00034242 00000-0 11042-2 0 9991 2 56212 97.3886 200.9382 0009768 234.9733 125.0592 15.32039693 31351 NEUDOSE 1 56315U 98067VG 23306.56387421 .00327897 00000-0 12508-2 0 9994 2 56315 51.6270 345.8816 0006650 9.7915 350.3217 15.86062047 30032 YukonSat 1 56316U 98067VH 23306.41027810 .00767583 28623-3 13872-2 0 9991 2 56316 51.6238 342.5456 0008124 18.7186 341.4122 16.00914386 30089 URESAT-1 1 56992U 23084BU 23306.28408371 .00021581 00000-0 11205-2 0 9993 2 56992 97.5177 60.8398 0017215 101.6335 258.6831 15.16003228 21530 MRC-100 1 56993U 23084BV 23306.87006686 .00021533 00000-0 11072-2 0 9991 2 56993 97.5183 61.4500 0017008 99.9867 260.3286 15.16349422 21633 UmKA 1 (RS40S) 1 57172U 23091G 23306.82801643 .00006327 00000-0 45371-3 0 9994 2 57172 97.6470 356.2573 0017983 171.8378 188.3144 15.04574698 19278 CubeBel-2 (EU11S) 1 57175U 23091K 23306.86919640 .00007087 00000-0 51135-3 0 9997 2 57175 97.6479 356.1962 0016359 180.5770 179.5439 15.04318227 19273 /EX